WetterOnline ( https://www.wetteronline.de )

Wetter aktuell Vogelsberg

Aktuelles Wetter: Hoherodskopf/Vogelsberg (743m)

6-stündlich | Neueste Meldungen
Ortszeit Temperatur Wetter
Mi, 22.09. 2:00 8.0° C wolkenlos
Di, 21.09. 20:00 9.3° C wolkenlos
Di, 21.09. 14:00 10.3° C wolkenlos
Di, 21.09. 8:00 6.2° C wolkenlos
Di, 21.09. 2:00 5.4° C wolkenlos
Mo, 20.09. 20:00 7.5° C fast wolkenlos
Mo, 20.09. 14:00 8.7° C wolkenlos
Mo, 20.09. 8:00 6.5° C bedeckt
Ortszeit Temperatur Wetter
Mi, 22.09. 7:00 7.9° C wolkenlos
Mi, 22.09. 6:50 7.9° C wolkenlos
Mi, 22.09. 6:40 7.8° C wolkenlos
Mi, 22.09. 6:30 7.9° C wolkenlos
Mi, 22.09. 6:20 7.9° C -
Mi, 22.09. 6:10 7.8° C leicht bewölkt
Mi, 22.09. 6:00 8.4° C wolkig
Mi, 22.09. 5:30 8.5° C bewölkt
Mi, 22.09. 5:00 8.5° C wolkig
Mi, 22.09. 4:30 8.2° C leicht bewölkt
Mi, 22.09. 4:00 8.2° C wolkenlos
Ortszeit Relative Feuchte Sichtweite
Mi, 22.09. 2:00 82% 40 km
Di, 21.09. 20:00 74% 45 km
Di, 21.09. 14:00 64% 65 km
Di, 21.09. 8:00 82% 45 km
Di, 21.09. 2:00 82% 45 km
Mo, 20.09. 20:00 83% 30 km
Mo, 20.09. 14:00 78% 45 km
Mo, 20.09. 8:00 88% 25 km
Ortszeit Relative Feuchte Sichtweite
Mi, 22.09. 7:00 93% 13 km
Mi, 22.09. 6:50 93% -
Mi, 22.09. 6:40 92% -
Mi, 22.09. 6:30 92% 14 km
Mi, 22.09. 6:20 92% -
Mi, 22.09. 6:10 90% -
Mi, 22.09. 6:00 83% 30 km
Mi, 22.09. 5:30 80% 35 km
Mi, 22.09. 5:00 79% 40 km
Mi, 22.09. 4:30 83% 28 km
Mi, 22.09. 4:00 76% 55 km
Ortszeit Niederschlagsmenge Niederschlagsart
Mi, 22.09. 2:00 0.0 l/m2 in 6 Std. -
Di, 21.09. 20:00 0.0 l/m2 in 12 Std. -
Di, 21.09. 14:00 0.0 l/m2 in 6 Std. -
Di, 21.09. 8:00 0.0 l/m2 in 12 Std. -
Di, 21.09. 2:00 0.0 l/m2 in 6 Std. -
Mo, 20.09. 20:00 0.0 l/m2 in 12 Std. -
Mo, 20.09. 14:00 0.0 l/m2 in 6 Std. -
Mo, 20.09. 8:00 0.0 l/m2 in 12 Std. -
Ortszeit Niederschlagsmenge Niederschlagsart
Mi, 22.09. 7:00 0.0 l/m2 in 1 Std. -
Mi, 22.09. 6:50 keine Meldung -
Mi, 22.09. 6:40 keine Meldung -
Mi, 22.09. 6:30 0.0 l/m2 in 1 Std. -
Mi, 22.09. 6:20 keine Meldung -
Mi, 22.09. 6:10 keine Meldung -
Mi, 22.09. 6:00 0.0 l/m2 in 1 Std. -
Mi, 22.09. 5:30 0.0 l/m2 in 1 Std. -
Mi, 22.09. 5:00 0.0 l/m2 in 1 Std. -
Mi, 22.09. 4:30 0.0 l/m2 in 1 Std. -
Mi, 22.09. 4:00 0.0 l/m2 in 1 Std. -
Ortszeit Stärke Spitze Richtung
km/h Bft. km/h Grad Sektor
Mi, 22.09. 2:00 14 3 18 340° N
Di, 21.09. 20:00 7 2 22 10° N
Di, 21.09. 14:00 7 2 22 340° N
Di, 21.09. 8:00 7 2 22 50° NO
Di, 21.09. 2:00 7 2 22 80° O
Mo, 20.09. 20:00 11 2 25 60° NO
Mo, 20.09. 14:00 9 2 26 90° O
Mo, 20.09. 8:00 9 2 15 80° O
Ortszeit Stärke Spitze Richtung
km/h Bft. km/h Grad Sektor
Mi, 22.09. 7:00 11 2 20 340° N
Mi, 22.09. 6:50 11 2 - 340° N
Mi, 22.09. 6:40 11 2 - 340° N
Mi, 22.09. 6:30 11 2 22 340° N
Mi, 22.09. 6:20 11 2 - 340° N
Mi, 22.09. 6:10 11 2 - 340° N
Mi, 22.09. 6:00 11 2 17 340° N
Mi, 22.09. 5:30 11 2 14 340° N
Mi, 22.09. 5:00 13 3 26 340° N
Mi, 22.09. 4:30 14 3 22 330° NW
Mi, 22.09. 4:00 14 3 22 340° N
Ortszeit Untergrenze Bedeckung Gattung
total tief tief mittel hoch
Mi, 22.09. 2:00 - 0/8 0/8 - - -
Di, 21.09. 20:00 - 0/8 0/8 - - -
Di, 21.09. 14:00 - 0/8 0/8 - - -
Di, 21.09. 8:00 - 0/8 0/8 - - -
Di, 21.09. 2:00 - 0/8 0/8 - - -
Mo, 20.09. 20:00 330 m 1/8 1/8 - - -
Mo, 20.09. 14:00 - 0/8 0/8 - - -
Mo, 20.09. 8:00 - 8/8 - - - -
Ortszeit Bedeckungsgrad in Achtel und Wolkenuntergrenze
Mi, 22.09. 7:00 keine Wolken
Mi, 22.09. 6:50 keine Wolken
Mi, 22.09. 6:40 keine Wolken
Mi, 22.09. 6:30 keine Wolken
Mi, 22.09. 6:20 -
Mi, 22.09. 6:10 2(270m)
Mi, 22.09. 6:00 5(270m) 6(390m)
Mi, 22.09. 5:30 7(300m)
Mi, 22.09. 5:00 5(300m)
Mi, 22.09. 4:30 3(300m)
Mi, 22.09. 4:00 1(300m)
Ortszeit Luftdruck NN (hPa) Tendenz (hPa in 3 Std.)
Mi, 22.09. 2:00 1031 - 0,4
Di, 21.09. 20:00 1030 + 0,6
Di, 21.09. 14:00 1030 + 0,7
Di, 21.09. 8:00 1028 + 1,3
Di, 21.09. 2:00 1027 + 0,7
Mo, 20.09. 20:00 1024 + 1,3
Mo, 20.09. 14:00 1021 + 0,7
Mo, 20.09. 8:00 1020 + 0,9
Ortszeit Luftdruck NN (hPa) Tendenz (hPa in 3 Std.)
Mi, 22.09. 7:00 1030 - 0,1
Mi, 22.09. 6:50 1030 keine Meldung
Mi, 22.09. 6:40 1030 keine Meldung
Mi, 22.09. 6:30 1030 - 0,1
Mi, 22.09. 6:20 1030 keine Meldung
Mi, 22.09. 6:10 1030 keine Meldung
Mi, 22.09. 6:00 1030 - 0,2
Mi, 22.09. 5:30 1030 - 0,4
Mi, 22.09. 5:00 1030 - 0,7
Mi, 22.09. 4:30 1030 - 0,6
Mi, 22.09. 4:00 1030 - 0,9
Ortszeit Schneehöhe (cm)
Mi, 22.09. 2:00 0
Di, 21.09. 20:00 0
Di, 21.09. 14:00 0
Di, 21.09. 8:00 0
Di, 21.09. 2:00 0
Mo, 20.09. 20:00 0
Mo, 20.09. 14:00 0
Mo, 20.09. 8:00 0
Ortszeit Schneehöhe (cm)
Mi, 22.09. 7:00 0
Mi, 22.09. 6:50 0
Mi, 22.09. 6:40 0
Mi, 22.09. 6:30 0
Mi, 22.09. 6:20 0
Mi, 22.09. 6:10 0
Mi, 22.09. 6:00 0
Mi, 22.09. 5:30 0
Mi, 22.09. 5:00 0
Mi, 22.09. 4:30 0
Mi, 22.09. 4:00 0
Link zu dieser Seite / Seite empfehlen

Das Wetter in ...